Elbert, CO

3:21 PM MST on January 20, 2017 (GMT -0700)
Monument Pass

Weather History for KMNH - August, 2013

Change the Weather History Date:

Monday, August 5, 2013

  Actual Average Record
Temperature  
Mean Temperature 66 °F -  
Max Temperature 78 °F - 87 °F (2003)
Min Temperature 55 °F - 46 °F (2016)
Degree Days  
Heating Degree Days 0    
Month to date heating degree days  
Cooling Degree Days 2    
Month to date cooling degree days  
Growing Degree Days 16 (Base 50)    
Moisture  
Dew Point 45 °F    
Average Humidity 53    
Maximum Humidity 88    
Minimum Humidity 18    
Precipitation  
Precipitation 0.00 in - 0.83 in (2008)
Sea Level Pressure  
Sea Level Pressure 30.25 in    
Wind  
Wind Speed 9 mph (WNW)    
Max Wind Speed 18 mph    
Max Gust Speed 24 mph    
Visibility 10 miles    
Events      
T = Trace of Precipitation, MM = Missing Value Source: NWS Daily Summary

Daily Weather History Graph

Daily Weather History Graph

Search for Another Location

Airport or City:

Trip Planner

Search our weather history database for the weather conditions in past years. The results will help you decide how hot, cold, wet, or windy it might be!

Date:

Astronomy

Aug. 05, 2013 Rise Set
Actual Time 6:02 AM MDT 8:05 PM MDT
Civil Twilight 5:33 AM MDT 8:35 PM MDT
Nautical Twilight 4:57 AM MDT 9:10 PM MDT
Astronomical Twilight 4:18 AM MDT 9:49 PM MDT
Moon 4:59 AM MDT (8/5) 7:07 PM MDT (8/5)
Length of Visible Light 15h 01m
Length of Day
14h 03m
Waning Crescent, 1% of the Moon is Illuminated
Aug 5
Waning Crescent
Aug 6
New
Aug 14
First Quarter
Aug 20
Full
Aug 28
Last Quarter

Hourly Weather History & Observations

Time (MDT) Temp. Dew Point Humidity Pressure Visibility Wind Dir Wind Speed Gust Speed Precip Events Conditions
12:14 AM 57.2 °F 50.0 °F 77% 30.30 in 10.0 mi SSW 9.2 mph - N/A   Mostly Cloudy
12:34 AM 55.4 °F 50.0 °F 82% 30.30 in 10.0 mi SSW 5.8 mph - N/A   Scattered Clouds
12:54 AM 55.4 °F 50.0 °F 82% 30.28 in 10.0 mi SSW 8.1 mph - N/A   Clear
1:13 AM 55.4 °F 48.2 °F 77% 30.27 in 10.0 mi SSW 8.1 mph - N/A   Clear
1:34 AM 55.4 °F 48.2 °F 77% 30.26 in 10.0 mi SW 11.5 mph - N/A   Clear
1:54 AM 55.4 °F 46.4 °F 72% 30.25 in 10.0 mi SSW 8.1 mph - N/A   Clear
2:14 AM 55.4 °F 46.4 °F 72% 30.25 in 10.0 mi SSW 6.9 mph - N/A   Clear
2:34 AM 55.4 °F 46.4 °F 72% 30.24 in 10.0 mi SW 9.2 mph - N/A   Clear
2:54 AM 55.4 °F 46.4 °F 72% 30.23 in 10.0 mi SW 11.5 mph - N/A   Clear
3:14 AM 57.2 °F 46.4 °F 67% 30.23 in 10.0 mi SW 10.4 mph - N/A   Clear
3:34 AM 57.2 °F 46.4 °F 67% 30.23 in 10.0 mi SW 11.5 mph - N/A   Clear
3:54 AM 57.2 °F 48.2 °F 72% 30.21 in 10.0 mi SW 10.4 mph - N/A   Clear
4:14 AM 59.0 °F 48.2 °F 67% 30.21 in 10.0 mi SW 8.1 mph - N/A   Clear
4:34 AM 59.0 °F 48.2 °F 67% 30.21 in 10.0 mi WSW 9.2 mph - N/A   Clear
4:54 AM 55.4 °F 48.2 °F 77% 30.21 in 10.0 mi WSW 9.2 mph - N/A   Clear
5:14 AM 55.4 °F 46.4 °F 72% 30.21 in 10.0 mi WSW 6.9 mph - N/A   Clear
5:34 AM 57.2 °F 46.4 °F 67% 30.21 in 10.0 mi WSW 8.1 mph - N/A   Clear
5:54 AM 55.4 °F 46.4 °F 72% 30.21 in 10.0 mi WSW 8.1 mph - N/A   Clear
6:14 AM 55.4 °F 46.4 °F 72% 30.22 in 10.0 mi WSW 9.2 mph - N/A   Clear
6:34 AM 59.0 °F 46.4 °F 63% 30.22 in 10.0 mi WSW 9.2 mph - N/A   Clear
6:54 AM 59.0 °F 46.4 °F 63% 30.23 in 10.0 mi WSW 9.2 mph - N/A   Clear
7:14 AM 59.0 °F 48.2 °F 67% 30.23 in 10.0 mi WSW 8.1 mph - N/A   Clear
7:34 AM 60.8 °F 50.0 °F 68% 30.23 in 10.0 mi West 6.9 mph - N/A   Clear
7:54 AM 62.6 °F 48.2 °F 59% 30.24 in 10.0 mi West 8.1 mph - N/A   Clear
8:14 AM 66.2 °F 48.2 °F 52% 30.24 in 10.0 mi West 6.9 mph - N/A   Clear
8:34 AM 66.2 °F 50.0 °F 56% 30.25 in 10.0 mi WNW 6.9 mph - N/A   Clear
8:54 AM 69.8 °F 50.0 °F 49% 30.25 in 10.0 mi WNW 8.1 mph - N/A   Clear
9:14 AM 69.8 °F 44.6 °F 40% 30.25 in 10.0 mi NW 8.1 mph - N/A   Clear
9:34 AM 71.6 °F 42.8 °F 35% 30.26 in 10.0 mi NNW 8.1 mph - N/A   Clear
9:54 AM 69.8 °F 41.0 °F 35% 30.26 in 10.0 mi NNW 9.2 mph - N/A   Clear
10:14 AM 71.6 °F 44.6 °F 38% 30.27 in 10.0 mi North 8.1 mph - N/A   Clear
10:34 AM 71.6 °F 42.8 °F 35% 30.27 in 10.0 mi North 6.9 mph - N/A   Clear
10:54 AM 73.4 °F 42.8 °F 33% 30.27 in 10.0 mi NNE 13.8 mph 18.4 mph N/A   Clear
11:14 AM 73.4 °F 42.8 °F 33% 30.27 in 10.0 mi NNE 17.3 mph 20.7 mph N/A   Clear
11:34 AM 75.2 °F 46.4 °F 36% 30.28 in 10.0 mi NE 15.0 mph - N/A   Clear
11:54 AM 75.2 °F 42.8 °F 31% 30.28 in 10.0 mi NE 13.8 mph 19.6 mph N/A   Clear
12:14 PM 75.2 °F 42.8 °F 31% 30.27 in 10.0 mi NNE 13.8 mph 18.4 mph N/A   Clear
12:34 PM 75.2 °F 44.6 °F 34% 30.27 in 10.0 mi NNE 11.5 mph - N/A   Clear
12:54 PM 75.2 °F 41.0 °F 29% 30.27 in 10.0 mi NE 15.0 mph 19.6 mph N/A   Clear
1:14 PM 77.0 °F 42.8 °F 29% 30.26 in 10.0 mi NE 10.4 mph 18.4 mph N/A   Clear
1:34 PM 77.0 °F 42.8 °F 29% 30.26 in 10.0 mi ENE 12.7 mph 16.1 mph N/A   Clear
1:54 PM 77.0 °F 42.8 °F 29% 30.25 in 10.0 mi ENE 11.5 mph - N/A   Clear
2:14 PM 77.0 °F 37.4 °F 24% 30.25 in 10.0 mi ENE 11.5 mph 19.6 mph N/A   Clear
2:34 PM 77.0 °F 39.2 °F 26% 30.24 in 10.0 mi ENE 12.7 mph - N/A   Clear
2:54 PM 78.8 °F 37.4 °F 23% 30.23 in 10.0 mi East 8.1 mph - N/A   Clear
3:14 PM 78.8 °F 35.6 °F 21% 30.23 in 10.0 mi East 9.2 mph 16.1 mph N/A   Clear
3:34 PM 78.8 °F 32.0 °F 18% 30.23 in 10.0 mi ENE 10.4 mph 17.3 mph N/A   Clear
3:53 PM 78.8 °F 32.0 °F 18% 30.23 in 10.0 mi ENE 9.2 mph - N/A   Clear
4:13 PM 77.0 °F 33.8 °F 21% 30.23 in 10.0 mi NNE 8.1 mph 16.1 mph N/A   Clear
4:33 PM 78.8 °F 35.6 °F 21% 30.23 in 10.0 mi NNE 8.1 mph - N/A   Clear
4:54 PM 77.0 °F 35.6 °F 22% 30.23 in 10.0 mi NE 8.1 mph - N/A   Scattered Clouds
5:13 PM 77.0 °F 35.6 °F 22% 30.23 in 10.0 mi NNE 5.8 mph - N/A   Mostly Cloudy
5:34 PM 77.0 °F 37.4 °F 24% 30.23 in 10.0 mi NE 6.9 mph - N/A   Mostly Cloudy
5:54 PM 73.4 °F 37.4 °F 27% 30.23 in 10.0 mi ENE 5.8 mph - N/A   Mostly Cloudy
6:14 PM 73.4 °F 42.8 °F 33% 30.24 in 10.0 mi NNW 9.2 mph - N/A   Overcast
6:34 PM 71.6 °F 42.8 °F 35% 30.24 in 10.0 mi NW 9.2 mph - N/A   Mostly Cloudy
6:54 PM 68.0 °F 48.2 °F 49% 30.24 in 10.0 mi NNE 18.4 mph 24.2 mph N/A   Overcast
7:13 PM 64.4 °F 50.0 °F 59% 30.25 in 10.0 mi NNE 13.8 mph 23.0 mph N/A   Overcast
7:34 PM 62.6 °F 50.0 °F 63% 30.26 in 10.0 mi NE 8.1 mph - N/A   Overcast
7:53 PM 62.6 °F 48.2 °F 59% 30.25 in 10.0 mi NE 8.1 mph - N/A   Overcast
8:14 PM 62.6 °F 50.0 °F 63% 30.24 in 10.0 mi NE 6.9 mph - N/A   Mostly Cloudy
8:33 PM 60.8 °F 50.0 °F 68% 30.25 in 10.0 mi NE 5.8 mph - N/A   Scattered Clouds
8:54 PM 60.8 °F 50.0 °F 68% 30.25 in 10.0 mi Calm Calm - N/A   Clear
9:13 PM 59.0 °F 51.8 °F 77% 30.26 in 10.0 mi West 8.1 mph - N/A   Clear
9:33 PM 57.2 °F 50.0 °F 77% 30.26 in 10.0 mi West 5.8 mph - N/A   Clear
9:53 PM 55.4 °F 51.8 °F 88% 30.25 in 10.0 mi WSW 6.9 mph - N/A   Clear
10:14 PM 55.4 °F 50.0 °F 82% 30.25 in 10.0 mi WSW 6.9 mph - N/A   Clear
10:34 PM 57.2 °F 50.0 °F 77% 30.25 in 10.0 mi SW 5.8 mph - N/A   Clear
10:53 PM 57.2 °F 50.0 °F 77% 30.25 in 10.0 mi SW 5.8 mph - N/A   Clear
11:13 PM 57.2 °F 50.0 °F 77% 30.25 in 10.0 mi SW 6.9 mph - N/A   Scattered Clouds
11:34 PM 55.4 °F 50.0 °F 82% 30.24 in 10.0 mi SSW 6.9 mph - N/A   Scattered Clouds
11:54 PM 57.2 °F 48.2 °F 72% 30.23 in 10.0 mi SW 8.1 mph - N/A   Clear